Starlink 4125

operational
NORAD ID: 53244 Int'l Des: 2022-086 Owner: SPXS Country: US Constellation: starlink
LEOCIRCULAR

About Starlink 4125

Description loading...

Live Position

Loading 3D Globe...

Upcoming Passes

Altitude History

Altitude vs Time

uPlot chart will show altitude changes over time

Two-Line Element Set

1 53244U 22086C 25348.91406582 .00001498 00000-0 11217-3 0 9990
2 53244 53.2169 224.7707 0001363 79.7202 280.3944 15.08839121188448
Epoch: Dec 14, 2025 • Age: 12 hours

Current Status

Altitude 550.8 km
Velocity 7.59 km/s
Sub-Earth Point -33.09°S, 163.56°W
Launch Date Jul 24, 2022
Age 3.3 years
Type internet

Technical Details

Classification Payload
Mass 297.00 kg
Dry Mass 275.00 kg
Total Mass 297.00 kg
Length 0.20 m
Diameter 2.80 m
Span 9.00 m
Shape Box + pan
Manufacturer SPXS
Bus Type Starlink
Phase Status In Orbit
Owner/State SPXS/US

Large Constellations

Loading constellations...